[[{"header":{"parameterUnit":"m.s-1","parameterCategory":1,"la1":30.2992,"la2":30.254,"lo1":-89.0895,"lo2":-89.0443,"dy":0.0025,"dx":0.0025,"nx":19,"ny":19,"refTime":"2026-04-05T09:00:00:Z","depth":0,"parameterNumber":2,"parameterNumberName":"U-component_of_WINDS"},"data":[0,0,0,-3.5096,-3.51,-3.5278,-3.5279,-3.5545,-3.5548,0,0,0,0,0,0,0,0,0,0,0,-3.5066,-3.5069,-3.5095,-3.51,-3.5278,-3.5279,-3.5545,-3.5548,0,0,0,0,0,0,0,0,0,0,0,-3.5065,-3.5068,-3.5071,-3.5101,-3.5278,-3.5279,-3.5544,-3.5396,0,0,0,0,0,0,0,0,0,0,-3.5216,-3.5212,-3.5067,-3.5071,-3.5102,-3.5278,-3.5279,-3.5388,-3.5405,-3.5481,0,-3.5554,0,-3.5556,-3.5568,-3.5569,0,0,0,-3.5083,-3.5198,-3.5225,-3.5072,-3.5104,-3.5278,-3.5193,-3.5397,-3.5417,-3.5504,-3.5558,-3.5567,-3.556,-3.557,-3.5572,-3.6067,-3.607,0,0,-3.5073,-3.5111,-3.5212,-3.5239,-3.5213,-3.5187,-3.5199,-3.5408,-3.547,-3.5559,-3.5572,-3.5565,-3.5572,-3.5575,-3.6064,-3.6068,0,0,0,-3.5057,-3.5105,-3.5125,-3.5229,-3.5258,-3.5193,-3.5206,-3.5461,-3.5464,-3.5575,-3.5568,-3.5574,-3.5578,-3.6061,-3.6066,-3.626,0,0,0,-3.505,-3.5095,-3.5122,-3.5147,-3.5255,-3.5361,-3.5254,-3.545,-3.5472,-3.5566,-3.5574,-3.5581,-3.6057,-3.6063,-3.6247,-3.6346,0,0,0,-3.5047,-3.5094,-3.5128,-3.5149,-3.5226,-3.5357,-3.5372,-3.5453,-3.5469,-3.557,-3.5582,-3.6055,-3.6062,-3.6235,-3.6327,-3.6491,0,0,0,-3.5054,-3.5297,-3.5132,-3.5399,-3.5225,-3.5474,-3.537,-3.5553,-3.5663,-3.5576,-3.6058,-3.6065,-3.6232,-3.6316,-3.6479,-3.6638,-3.6707,0,0,-3.5381,-3.5337,-3.5492,-3.5349,-3.5638,-3.5444,-3.5761,-3.5825,-3.5799,-3.5979,-3.5991,-3.6251,-3.6326,-3.6488,-3.7071,-3.7126,0,0,0,-3.5608,-3.5721,-3.5788,-3.5894,-3.5948,-3.6004,-3.6015,-3.6039,-3.619,-3.5899,-3.635,-3.6394,-3.6487,-3.6562,-3.6609,-3.6688,-3.61,-3.6099,-3.6098,-3.6129,-3.6083,-3.6336,-3.6312,-3.6416,-3.6425,-3.6505,-3.6539,-3.6461,-3.6568,-3.6624,-3.6983,-3.7072,-3.7106,-3.719,-3.67,-3.67,-3.6701,-3.6702,-3.6608,-3.6761,-3.6651,-3.6859,-3.6809,-3.6982,-3.6999,-3.6939,-3.7094,-3.6937,-3.7017,-3.6855,-3.7168,-3.7239,-3.6716,-3.6713,-3.6711,-3.671,-3.6709,-3.6948,-3.7013,-3.7037,-3.7186,-3.7305,-3.727,-3.7425,-3.7372,-3.7324,-3.7403,-3.7457,-3.7454,-3.7448,-3.7431,-3.7432,-3.7434,-3.7435,-3.7436,-3.7436,-3.7293,-3.7313,-3.745,-3.7528,-3.7589,-3.7663,-3.7673,-3.7732,-3.7785,-3.7734,-3.7734,-3.765,-3.7205,-3.7098,-3.7456,-3.7452,-3.745,-3.7448,-3.7447,-3.7805,-3.768,-3.7892,-3.7954,-3.8041,-3.8165,-3.8093,-3.8219,-3.8259,-3.8338,-3.8233,-3.7912,-3.7864,-3.7827,-3.7738,-3.824,-3.824,-3.824,-3.824,-3.8096,-3.8064,-3.827,-3.8372,-3.8466,-3.8423,-3.8665,-3.8675,-3.8665,-3.8688,-3.8606,-3.8481,-3.8445,-3.8419,-3.8369,-3.8285,-3.8915,-3.8916,-3.8916,-3.8409,-3.8385,-3.8602,-3.859,-3.8654,-3.871,-3.8937,-3.906,-3.9022,-3.8943,-3.8706,-3.8677,-3.8475,-3.8411,-3.8333,-3.8255,-3.8101,0,0]},{"header":{"parameterUnit":"m.s-1","parameterCategory":1,"la1":30.2992,"la2":30.254,"lo1":-89.0895,"lo2":-89.0443,"dy":0.0025,"dx":0.0025,"nx":19,"ny":19,"refTime":"2026-04-05T09:00:00:Z","depth":0,"parameterNumber":3,"parameterNumberName":"V-component_of_WINDS"},"data":[0,0,0,-4.5299,-4.5302,-4.5415,-4.5416,-4.5576,-4.5577,0,0,0,0,0,0,0,0,0,0,0,-4.5277,-4.5279,-4.5299,-4.5302,-4.5415,-4.5416,-4.5576,-4.5577,0,0,0,0,0,0,0,0,0,0,0,-4.5277,-4.5279,-4.528,-4.5303,-4.5415,-4.5416,-4.5575,-4.5484,0,0,0,0,0,0,0,0,0,0,-4.537,-4.5363,-4.5278,-4.5281,-4.5303,-4.5415,-4.5416,-4.5479,-4.5489,-4.5532,0,-4.5575,0,-4.5579,-4.5589,-4.559,0,0,0,-4.5292,-4.5355,-4.5374,-4.5281,-4.5304,-4.5415,-4.5362,-4.5484,-4.5496,-4.5546,-4.5577,-4.5583,-4.5582,-4.5591,-4.5591,-4.5873,-4.5874,0,0,-4.5286,-4.5304,-4.5366,-4.5383,-4.5369,-4.5358,-4.5365,-4.5491,-4.5526,-4.5578,-4.5586,-4.5584,-4.5592,-4.5593,-4.5871,-4.5873,0,0,0,-4.5275,-4.53,-4.5316,-4.5377,-4.5396,-4.5361,-4.537,-4.552,-4.5524,-4.5588,-4.5586,-4.5593,-4.5595,-4.5869,-4.5872,-4.5976,0,0,0,-4.527,-4.5293,-4.5314,-4.5326,-4.5394,-4.546,-4.5396,-4.5516,-4.5529,-4.5586,-4.5593,-4.5597,-4.5867,-4.587,-4.5969,-4.6023,0,0,0,-4.5266,-4.5292,-4.5313,-4.5327,-4.5376,-4.5458,-4.5469,-4.5518,-4.5529,-4.559,-4.5597,-4.5866,-4.587,-4.5963,-4.6012,-4.6101,0,0,0,-4.5266,-4.5405,-4.5315,-4.5469,-4.5376,-4.5522,-4.5468,-4.5576,-4.5641,-4.5594,-4.5867,-4.5871,-4.5961,-4.6006,-4.6095,-4.618,-4.6217,0,0,-4.5451,-4.5427,-4.5516,-4.544,-4.5607,-4.5504,-4.5685,-4.5727,-4.5716,-4.582,-4.5827,-4.5972,-4.6012,-4.61,-4.6419,-4.6449,0,0,0,-4.5581,-4.5645,-4.5686,-4.5749,-4.5785,-4.582,-4.5832,-4.5847,-4.5935,-4.5774,-4.6027,-4.6051,-4.6102,-4.6141,-4.6167,-4.6209,-4.5891,-4.589,-4.589,-4.5869,-4.5847,-4.5992,-4.5984,-4.6046,-4.6056,-4.6103,-4.6125,-4.6085,-4.6145,-4.6176,-4.6373,-4.642,-4.6439,-4.6483,-4.6219,-4.6219,-4.622,-4.622,-4.6137,-4.6224,-4.6167,-4.6288,-4.6263,-4.6363,-4.6377,-4.6345,-4.6433,-4.6348,-4.6392,-4.6301,-4.6472,-4.6509,-4.6228,-4.6226,-4.6225,-4.6225,-4.6224,-4.6323,-4.6361,-4.6378,-4.6465,-4.6535,-4.652,-4.6607,-4.6581,-4.6557,-4.66,-4.6629,-4.6627,-4.6622,-4.6616,-4.6616,-4.6617,-4.6618,-4.6618,-4.6619,-4.651,-4.6525,-4.6603,-4.6651,-4.6687,-4.6731,-4.6741,-4.6775,-4.6805,-4.6779,-4.6779,-4.6732,-4.6493,-4.6434,-4.6629,-4.6627,-4.6626,-4.6625,-4.6624,-4.6791,-4.6723,-4.6843,-4.6879,-4.6932,-4.7002,-4.6967,-4.7037,-4.7061,-4.7104,-4.7047,-4.6875,-4.6849,-4.6829,-4.6779,-4.7052,-4.7052,-4.7052,-4.7052,-4.6948,-4.6932,-4.7048,-4.7107,-4.7161,-4.7141,-4.7274,-4.7282,-4.7279,-4.7292,-4.7248,-4.718,-4.716,-4.7146,-4.7119,-4.7072,-4.7414,-4.7414,-4.7414,-4.7119,-4.7107,-4.7227,-4.7224,-4.7263,-4.7296,-4.742,-4.7487,-4.747,-4.7428,-4.7301,-4.7286,-4.7175,-4.7141,-4.7098,-4.7056,-4.697,0,0]}]]